Lid_Strength_Index
9 13 15 14 10 9 7 5 6 7 5 5 7 4 4 1 0 0 0 0 -0 -1 -1 -1 -1 -1 -1 -1 -1 -1 -1 -1
12 13 11 10 8 7 7 6 5 6 7 4 3 3 2 1 0 0 1 1 -1 -1 -1 -1 -1 -1 -1 -1 -1 -1 -1 -1
15 14 11 8 7 6 8 7 6 6 8 7 3 1 1 1 0 1 1 1 -0 -1 -1 -1 -1 -1 -1 -1 -1 -1 -1 -1
16 14 11 8 7 7 7 7 6 6 7 7 3 2 2 1 1 0 0 0 -0 -1 -1 -1 -1 -1 -1 -1 -1 -1 -1 -1
14 13 11 9 6 7 7 7 7 5 8 6 4 2 1 1 0 0 0 0 0 0 -1 -1 -1 -1 -1 -1 -1 -1 -1 -1
14 14 13 8 7 6 7 7 3 4 8 9 4 2 1 1 1 1 1 0 1 0 0 0 0 -1 -1 -1 -1 -1 -1 -1
13 13 11 7 8 6 4 6 5 4 5 4 2 2 2 2 2 2 2 2 1 1 1 1 0 -0 -1 -1 -1 -1 -1 -1
10 11 10 8 8 7 7 7 7 5 4 3 3 3 4 4 4 3 2 2 1 1 1 0 -0 0 1 0 0 0 0 0
10 9 9 8 7 6 7 9 6 6 5 4 4 4 4 3 3 3 3 1 1 0 0 0 0 0 1 1 0 1 0 1
10 8 8 7 6 7 7 6 5 4 4 4 4 4 4 4 3 4 3 1 1 0 0 0 0 0 0 0 0 0 0 1
11 12 10 8 7 7 7 5 4 4 3 4 4 4 3 3 2 3 3 2 1 0 0 0 0 0 0 0 0 0 0 0
12 12 11 9 7 6 6 5 5 5 4 4 4 4 3 3 3 3 3 2 1 2 1 0 0 0 0 0 0 0 0 -0
12 12 12 9 9 8 6 5 5 5 4 4 4 3 4 3 3 3 2 2 2 2 2 1 1 0 0 0 0 0 0 0
13 12 11 11 12 7 5 6 6 5 5 5 5 5 3 2 4 3 2 3 2 1 2 2 2 0 0 0 0 0 0 -0
12 11 11 10 11 8 7 9 10 8 8 8 8 7 5 3 3 3 2 2 3 2 3 2 2 1 1 1 1 0 0 0
13 9 9 11 11 9 9 10 11 10 11 10 9 8 6 6 6 5 4 2 2 3 3 3 2 2 2 2 1 1 1 1
11 8 10 11 12 11 10 10 10 11 11 10 10 8 8 7 6 6 6 5 3 2 2 2 2 2 2 2 2 2 1 1
10 9 10 11 13 12 12 12 11 11 11 11 11 11 10 9 8 7 6 6 6 5 3 2 2 2 2 2 2 2 2 2
12 10 10 11 14 13 12 12 12 12 11 12 12 11 11 11 9 9 9 8 8 7 5 5 3 1 2 2 3 3 3 3
10 12 14 11 18 15 13 13 13 13 13 13 12 12 11 11 11 11 11 10 10 10 10 6 5 4 4 4 5 5 4 3